RH
31 26 25 25 27 28 29 28 28 30 31 40 39 36 39 48 32 38 48 58 53 65 66 70 68 68 68 69 77 84 76 69 82 84 70 55 64 62 59 78 77 83 70 77
29 24 28 29 30 29 29 27 29 31 28 28 31 28 29 28 40 46 43 48 52 58 62 70 73 71 69 74 76 80 83 74 90 88 66 48 54 55 57 57 80 80 79 80
25 26 31 28 29 28 27 27 30 30 31 26 23 22 25 22 23 31 35 41 48 55 54 61 73 79 70 71 71 73 74 73 79 84 58 48 45 53 69 79 77 77 78 78
26 30 30 28 27 27 23 32 32 29 25 22 23 19 22 22 25 25 26 38 48 53 50 56 66 74 80 66 66 72 70 68 74 69 46 60 61 70 78 82 81 81 75 75
28 31 32 28 28 29 28 31 30 28 24 24 25 18 20 23 32 39 28 32 38 51 48 53 59 57 68 62 66 70 68 71 65 44 53 64 70 73 59 68 76 71 66 70
28 33 31 29 34 32 30 29 27 26 22 19 25 23 17 21 31 39 28 26 34 50 43 54 48 47 53 56 55 66 66 52 43 52 56 60 66 68 66 67 64 63 58 58
30 32 32 33 30 31 28 24 20 20 22 19 24 22 18 24 21 25 26 26 30 46 40 44 43 43 45 44 40 42 42 48 53 57 64 65 67 71 69 67 58 44 34 23
26 27 30 31 28 25 25 24 20 23 19 18 24 21 20 22 18 25 21 27 28 40 39 44 40 42 45 44 46 48 49 52 57 60 58 63 72 64 52 41 35 23 15 12
21 22 25 27 26 26 24 27 23 20 18 20 21 23 19 22 19 23 24 29 30 39 39 44 45 42 41 40 44 51 56 52 52 60 63 66 47 40 41 31 14 10 9 10
18 17 18 18 22 23 26 24 23 20 20 23 16 17 19 18 20 23 30 31 35 31 33 41 47 46 47 44 47 58 57 51 53 61 65 35 42 43 23 15 7 6 8 9
14 13 17 19 22 21 23 25 23 19 18 16 14 12 13 15 18 34 41 46 46 34 32 37 42 51 51 54 55 57 56 56 50 61 57 42 47 29 29 26 12 6 8 9
15 13 14 14 16 17 16 18 21 21 20 19 17 16 14 15 21 19 38 52 49 38 36 32 40 48 55 59 58 58 63 69 72 58 57 44 41 34 37 34 31 22 10 10
15 14 13 14 13 14 14 14 14 15 16 17 15 14 15 13 13 12 38 31 33 38 39 35 35 42 52 60 61 69 73 71 63 60 44 47 35 40 41 43 43 39 37 25
14 11 12 10 11 12 13 12 13 14 16 15 15 13 13 15 21 14 27 17 28 38 38 38 37 44 52 53 62 69 66 62 66 59 38 52 34 40 43 45 46 49 48 47
18 14 13 13 12 12 11 12 13 16 17 13 12 12 12 15 18 22 19 20 26 39 41 41 37 35 42 46 51 61 62 64 64 48 43 54 44 34 38 40 43 47 51 53
19 18 18 16 14 13 12 11 12 13 12 12 13 14 12 11 12 12 13 18 21 32 40 46 36 35 38 39 42 47 50 52 56 54 40 54 58 48 49 55 58 53 50 52
28 21 21 13 17 15 15 13 12 12 13 13 14 13 16 19 16 15 13 16 20 33 35 40 39 36 39 43 46 48 50 51 53 48 39 50 57 62 64 58 54 57 67 66
34 32 27 18 20 16 15 14 13 14 15 16 17 17 20 12 10 18 21 20 21 36 36 39 46 44 48 54 48 41 49 56 58 38 36 48 53 56 57 56 55 69 60 60
26 30 24 25 19 14 17 15 14 24 18 17 19 21 24 12 13 16 22 22 26 38 42 47 59 57 50 58 46 44 54 55 58 37 37 46 51 54 56 58 67 62 64 68
32 21 32 25 27 21 18 26 15 15 19 28 18 14 12 15 34 35 30 26 34 42 46 51 54 55 62 59 52 55 61 57 58 44 39 46 48 45 73 68 66 66 66 71
33 35 29 23 25 24 33 27 22 31 25 22 16 15 12 24 30 29 33 35 35 45 47 48 47 51 59 58 54 50 57 64 64 58 48 55 71 74 66 64 64 62 76 86
36 33 29 31 32 31 35 31 36 34 29 24 20 19 18 33 37 42 37 37 35 37 43 46 46 49 58 56 57 50 55 64 70 75 73 77 72 68 49 35 34 46 54 44
44 41 39 46 45 45 36 40 40 37 33 32 32 32 36 47 50 50 48 40 40 42 45 48 51 59 64 68 57 56 60 69 76 79 76 60 46 40 36 35 34 32 32 33
48 44 47 49 46 45 44 39 37 39 40 42 42 37 44 52 50 47 46 46 47 50 51 59 70 72 72 63 53 48 47 60 66 50 49 52 44 42 39 38 35 33 30 29
61 52 65 62 53 45 47 47 47 47 50 50 51 50 50 50 50 46 44 56 57 67 60 51 51 51 54 55 54 49 50 52 52 56 54 45 36 33 32 31 32 33 32 31
54 64 60 59 56 48 48 47 49 48 57 63 62 56 58 66 64 66 62 57 52 46 43 41 42 43 44 48 56 57 55 56 52 44 36 32 31 36 54 57 55 50 46 44
Wind_Speed
11 10 12 7 4 2 2 4 4 3 8 6 9 14 11 12 10 7 8 8 4 8 6 2 6 9 9 11 9 9 13 11 14 10 6 5 6 4 1 2 5 2 1 1
14 12 7 8 6 2 2 3 5 4 10 9 9 11 8 9 6 7 7 7 5 6 10 6 3 6 9 10 10 10 13 14 13 11 9 7 6 5 5 5 5 5 4 5
17 9 9 7 5 5 2 5 6 7 9 8 14 7 8 9 12 6 5 6 6 5 9 12 11 10 7 9 10 12 12 13 14 12 10 6 6 6 4 3 6 8 11 9
18 11 11 7 7 7 6 2 6 9 10 9 9 13 3 11 12 11 2 3 5 7 7 11 12 8 7 9 10 15 16 16 16 13 11 9 7 5 3 3 6 10 9 7
20 16 14 13 8 4 4 4 6 8 12 10 4 10 7 8 7 7 3 3 5 7 8 9 11 10 9 9 8 12 15 15 15 14 11 9 8 5 2 6 8 10 11 10
18 16 14 16 8 6 5 7 12 11 10 16 4 7 2 12 11 6 4 3 5 8 7 10 11 8 9 9 9 12 17 15 15 14 11 9 7 5 6 8 10 12 15 14
24 18 17 15 13 10 10 15 18 10 7 6 2 9 6 9 17 10 1 2 4 6 8 10 8 10 10 10 12 14 15 15 14 13 10 8 5 5 8 10 12 15 16 17
22 21 24 19 22 18 11 15 13 7 9 12 7 10 7 12 13 7 3 2 2 7 8 9 12 14 12 11 11 13 12 9 9 8 7 5 4 5 9 12 16 18 18 17
16 21 11 19 19 19 18 18 15 14 13 12 8 6 13 3 14 10 4 3 3 8 9 9 13 13 13 12 12 11 12 8 3 5 5 5 5 7 11 16 18 16 15 13
14 9 13 12 16 21 23 12 11 16 8 9 2 7 9 9 6 11 5 6 6 5 8 10 13 14 14 13 14 14 11 6 13 9 6 4 5 10 13 15 17 16 13 11
13 13 8 10 13 16 19 21 18 16 8 11 10 5 6 10 8 5 10 11 9 5 6 9 12 16 15 14 14 13 10 8 8 9 6 4 6 8 11 15 16 14 13 12
17 11 14 11 10 13 12 20 24 21 18 14 13 19 14 13 9 10 10 13 11 8 5 6 12 15 17 15 15 13 11 12 11 12 9 7 6 5 8 11 14 14 13 12
17 12 13 12 12 14 18 20 21 21 22 15 15 13 9 12 7 10 10 11 11 9 7 5 9 12 16 17 16 14 14 14 11 12 12 6 5 3 5 9 12 13 14 13
15 15 14 14 13 7 14 17 20 23 22 17 14 17 12 8 9 13 9 12 12 12 10 7 9 13 17 17 17 15 16 15 15 14 12 10 8 5 5 7 10 11 13 15
12 12 14 16 15 12 14 12 16 22 23 19 15 9 13 9 11 9 9 12 15 18 14 11 11 13 13 13 14 16 16 17 16 16 16 11 9 11 11 11 12 12 13 15
10 9 9 13 14 15 17 17 15 16 18 19 17 17 18 16 17 19 16 15 17 18 17 17 15 15 15 13 13 13 13 15 16 16 17 13 14 14 14 15 16 17 18 18
7 7 8 15 5 9 15 20 19 18 18 18 19 18 16 19 23 24 24 21 18 20 20 20 17 17 16 16 14 15 17 19 18 19 20 19 18 16 16 18 20 20 20 20
7 9 11 17 9 12 12 15 16 19 19 19 19 18 19 26 25 25 24 23 14 25 24 23 20 18 19 18 16 12 15 17 19 20 22 22 20 21 21 22 24 22 22 22
11 10 14 15 20 22 10 14 19 17 17 16 17 15 18 23 22 24 25 23 20 28 23 20 21 21 21 18 16 13 13 13 20 22 23 23 23 25 24 24 21 22 23 23
11 14 14 15 15 17 18 12 14 16 15 12 14 14 17 18 13 14 20 15 28 27 26 24 25 26 25 22 13 10 13 13 19 21 23 25 25 25 20 20 22 24 25 25
10 11 15 19 20 19 13 15 13 12 15 14 12 12 16 16 14 14 12 20 24 26 25 26 24 28 29 27 12 9 9 13 18 19 21 21 19 19 23 25 23 23 23 23
16 15 14 13 15 18 16 17 13 16 17 16 14 14 16 15 12 10 9 16 22 24 25 26 26 26 28 26 19 16 14 14 16 17 18 17 20 23 23 22 22 22 22 23
16 17 16 9 7 11 15 12 17 21 25 19 15 15 14 10 10 9 9 10 16 18 20 21 22 23 21 17 13 13 12 13 16 17 18 20 22 20 20 20 20 21 21 22
15 19 18 16 16 21 17 22 24 24 20 24 19 21 15 15 14 13 11 12 15 16 16 15 18 18 12 9 7 8 14 15 16 16 18 20 20 21 20 20 19 19 19 18
12 11 8 11 13 15 13 17 16 15 17 17 15 11 10 9 9 8 13 14 16 17 16 13 9 8 5 6 7 9 8 11 15 17 19 21 22 21 19 16 16 16 16 17
8 6 5 6 13 8 8 12 11 8 8 8 4 7 9 12 14 20 19 18 17 15 9 5 3 1 6 6 7 10 13 16 17 18 19 18 16 14 13 15 16 16 17 17
Wind_Direction
180 196 205 195 227 58 48 333 326 358 347 324 302 301 291 270 314 247 221 206 166 204 239 245 239 235 226 225 233 218 206 217 235 224 208 184 169 176 152 30 318 266 262 5
186 212 178 163 164 178 341 336 4 306 346 352 323 313 310 325 287 248 214 206 196 220 230 229 265 263 240 226 225 208 217 180 202 208 205 193 197 218 243 274 287 287 296 310
206 186 166 161 189 244 263 332 359 333 325 338 346 253 356 354 1 347 262 226 202 218 234 236 245 266 269 220 203 200 191 202 211 210 193 173 193 209 245 285 288 303 305 292
209 210 202 206 236 248 283 343 322 317 317 357 342 331 81 355 348 14 45 194 197 221 234 238 228 225 269 231 208 211 210 217 208 196 186 169 186 198 233 260 275 289 313 309
207 215 215 231 251 249 289 317 315 303 291 298 85 320 38 6 16 359 83 155 219 225 227 235 214 198 217 211 203 197 202 200 184 179 176 166 179 188 245 290 287 294 295 296
222 213 222 237 224 247 280 305 288 287 284 265 54 342 338 7 2 4 23 107 201 212 206 214 206 185 183 193 178 169 170 175 173 173 170 174 188 210 247 277 292 298 296 292
219 226 230 220 240 254 263 273 278 256 221 304 343 306 319 336 334 338 82 132 158 198 185 183 177 170 164 171 163 156 162 168 173 178 177 182 205 247 281 292 298 293 295 296
215 217 226 236 237 251 253 262 286 298 290 320 320 273 307 321 352 323 260 166 168 191 189 178 175 168 167 164 162 152 152 170 185 182 184 220 261 282 293 300 305 308 305 302
219 235 218 229 240 233 235 238 260 282 259 264 282 310 292 268 331 340 244 199 197 189 195 188 186 173 170 166 163 159 156 170 211 238 247 258 283 306 308 308 306 302 302 300
223 234 233 237 232 228 227 249 224 228 269 269 292 302 275 319 332 326 232 216 209 190 204 192 191 190 183 180 178 182 180 193 228 221 237 260 310 315 325 328 319 313 306 299
208 219 193 217 213 217 216 229 237 270 277 296 285 294 333 317 323 276 200 196 209 208 202 203 198 195 192 196 196 206 215 217 208 226 245 271 300 325 352 360 353 342 332 326
203 219 226 215 215 229 231 235 237 236 242 246 287 287 290 291 276 306 202 196 209 220 208 209 204 203 204 207 209 218 232 232 247 224 233 248 294 328 5 9 13 20 11 358
196 213 222 225 224 239 236 238 241 247 252 268 284 288 322 284 279 279 202 245 233 233 215 230 214 203 202 213 219 221 232 229 226 214 220 226 241 306 357 2 13 17 20 17
194 226 227 243 237 264 221 235 232 237 237 241 244 279 303 272 285 282 234 280 251 228 226 233 216 205 206 208 214 219 218 216 216 226 222 236 243 269 301 327 343 356 1 7
203 235 245 255 259 252 240 233 234 230 241 256 261 295 293 296 274 287 280 268 243 220 216 218 220 217 210 214 214 211 214 214 219 222 221 232 252 263 277 298 311 327 337 342
212 242 256 264 255 245 243 241 232 236 244 245 256 279 292 274 268 277 282 276 260 225 211 211 218 211 208 207 217 220 224 227 230 233 226 239 254 265 282 294 304 312 314 320
203 239 263 266 258 256 243 242 243 244 236 238 250 272 295 296 268 260 263 274 268 216 209 211 215 211 206 213 217 223 228 234 236 239 237 242 254 267 277 288 296 301 305 310
242 249 261 268 273 249 266 246 234 239 241 244 257 281 296 295 271 265 269 271 254 198 203 206 212 211 210 212 215 227 245 254 245 236 236 243 254 264 275 285 294 300 302 305
237 244 256 252 255 263 267 268 253 232 246 252 265 286 296 293 289 271 274 272 198 195 195 197 206 212 216 219 220 247 245 247 248 232 234 244 255 266 275 284 289 296 300 302
245 245 242 250 264 264 272 217 253 245 246 251 263 292 293 300 296 265 277 214 183 189 193 197 202 209 215 217 228 254 238 243 247 237 242 250 260 272 279 286 291 294 293 293
228 236 244 245 250 255 259 267 264 230 244 245 253 275 290 301 290 281 252 190 187 197 197 200 206 214 215 212 241 285 240 232 235 243 249 259 269 276 284 289 293 294 292 294
236 242 240 244 262 256 260 266 245 242 249 249 256 265 278 289 281 264 244 207 199 198 198 204 213 216 217 225 249 269 243 238 243 246 254 260 272 281 288 294 293 291 291 292
242 240 252 252 271 256 269 272 273 265 258 263 267 270 275 263 235 236 230 208 197 192 200 206 218 217 231 253 223 231 239 242 246 257 270 278 287 293 300 296 293 291 291 291
247 248 257 265 259 270 274 275 276 277 282 269 284 271 262 237 229 222 227 222 205 199 204 207 208 214 220 217 244 271 260 255 260 270 281 290 300 302 300 296 294 293 292 295
235 258 249 263 258 264 275 266 274 276 272 271 276 272 240 229 239 224 212 213 196 173 162 159 152 144 174 233 254 251 274 291 292 289 294 300 302 302 299 298 299 298 298 298
230 242 233 235 244 243 265 275 261 265 269 277 244 170 168 165 158 151 145 151 147 142 138 150 174 232 242 282 301 297 293 285 285 291 295 292 289 292 299 304 305 306 304 301